ORBCOMM FM29 [-]

Last updated on Fri Dec 29 2023 00:02:54 GMT+0000 (Greenwich Mean Time)

1 33062U 08031C 23362.02359427 .00002901 00000+0 44324-3 0 9995 2 33062 48.4409 359.6965 0006815 247.4568 146.8618 14.76293642835053
UTC large
Height (km)
Speed (km/s)
/
Latitude / Longitude
Inclination (degrees)
Orbital Period (minutes)
Azimuth
Elevation
Range (km)
Doppler Factor

Next 0 passes for location: London (51.5072 / 0.1276)

Sorry there are no passes over London.